Fitchburg, MA

2:34 PM EDT on October 22, 2017 (GMT -0400)
Fitchburg Municipal

Weather History for KFIT - May, 2013

Change the Weather History Date:

Wednesday, May 8, 2013

  Actual Average (KORH) Record (KORH)
Temperature  
Mean Temperature 62 °F -  
Max Temperature 73 °F 61 °F 90 °F (1936)
Min Temperature 53 °F 41 °F 28 °F (1956)
Degree Days  
Heating Degree Days 3    
Growing Degree Days 12 (Base 50)    
Moisture  
Dew Point 58 °F    
Average Humidity 83    
Maximum Humidity 94    
Minimum Humidity 60    
Precipitation  
Precipitation 0.65 in - - ()
Sea Level Pressure  
Sea Level Pressure 30.14 in    
Wind  
Wind Speed 3 mph (ESE)    
Max Wind Speed 18 mph    
Max Gust Speed 36 mph    
Visibility 8 miles    
Events Rain    
Averages and records for this station are not official NWS values.
T = Trace of Precipitation, MM = Missing Value Source: NWS Daily Summary

Daily Weather History Graph

Daily Weather History Graph

Search for Another Location

Airport or City:

Trip Planner

Search our weather history database for the weather conditions in past years. The results will help you decide how hot, cold, wet, or windy it might be!

Date:

Astronomy

May. 08, 2013 Rise Set
Actual Time 5:32 AM EDT 7:55 PM EDT
Civil Twilight 5:01 AM EDT 8:26 PM EDT
Nautical Twilight 4:22 AM EDT 9:06 PM EDT
Astronomical Twilight 3:38 AM EDT 9:49 PM EDT
Moon 4:40 AM EDT (5/8) 6:49 PM EDT (5/8)
Length of Visible Light 15h 25m
Length of Day
14h 22m
Waning Crescent, 2% of the Moon is Illuminated
May 8
Waning Crescent
May 9
New
May 18
First Quarter
May 25
Full
May 31
Last Quarter

Hourly Weather History & Observations

Time (EDT) Temp. Dew Point Humidity Pressure Visibility Wind Dir Wind Speed Gust Speed Precip Events Conditions
12:52 AM 57.9 °F 53.1 °F 84% 30.17 in 10.0 mi Calm Calm - N/A   Clear
1:52 AM 55.9 °F 53.1 °F 90% 30.16 in 10.0 mi Calm Calm - N/A   Clear
2:52 AM 55.9 °F 53.1 °F 90% 30.15 in 10.0 mi Calm Calm - N/A   Clear
3:52 AM 54.0 °F 52.0 °F 93% 30.16 in 10.0 mi Calm Calm - N/A   Clear
4:52 AM 54.0 °F 52.0 °F 93% 30.17 in 10.0 mi Calm Calm - N/A   Clear
5:52 AM 53.1 °F 51.1 °F 93% 30.18 in 10.0 mi Calm Calm - N/A   Clear
6:52 AM 55.9 °F 52.0 °F 87% 30.19 in 10.0 mi NNW 3.5 mph - N/A   Clear
7:52 AM 61.0 °F 55.0 °F 81% 30.21 in 10.0 mi Calm Calm - N/A   Scattered Clouds
8:12 AM 62.6 °F 55.4 °F 77% 30.21 in 10.0 mi Calm Calm - N/A   Mostly Cloudy
8:19 AM 62.6 °F 55.4 °F 77% 30.21 in 10.0 mi East 3.5 mph - N/A   Mostly Cloudy
8:41 AM 62.6 °F 55.4 °F 77% 30.21 in 10.0 mi East 4.6 mph - N/A   Mostly Cloudy
8:52 AM 63.0 °F 55.9 °F 78% 30.20 in 10.0 mi East 4.6 mph - N/A   Overcast
9:52 AM 64.9 °F 57.9 °F 78% 30.20 in 10.0 mi Calm Calm - 0.00 in   Overcast
10:52 AM 70.0 °F 57.9 °F 65% 30.19 in 10.0 mi SE 5.8 mph - N/A   Mostly Cloudy
11:22 AM 71.6 °F 57.2 °F 60% 30.18 in 10.0 mi ESE 11.5 mph - N/A   Mostly Cloudy
11:52 AM 71.1 °F 57.0 °F 61% 30.17 in 10.0 mi SE 5.8 mph - 0.00 in Rain Light Rain
12:26 PM 66.2 °F 60.8 °F 83% 30.19 in 1.5 mi SSE 18.4 mph 35.7 mph 0.24 in Rain Heavy Rain
12:30 PM 62.6 °F 60.8 °F 94% 30.18 in 0.8 mi SSE 12.7 mph 35.7 mph 0.33 in Rain Heavy Rain
12:35 PM 62.6 °F 59.0 °F 88% 30.17 in 1.0 mi SSE 3.5 mph - 0.36 in Rain Heavy Rain
12:39 PM 62.6 °F 60.8 °F 94% 30.17 in 2.5 mi Calm Calm - 0.36 in Rain Light Rain
12:52 PM 64.9 °F 59.0 °F 81% 30.17 in 10.0 mi Calm Calm - 0.36 in   Overcast
1:52 PM 68.0 °F 62.1 °F 81% 30.15 in 10.0 mi SSE 3.5 mph - 0.02 in   Overcast
2:52 PM 71.1 °F 60.1 °F 68% 30.12 in 10.0 mi ESE 8.1 mph - N/A   Mostly Cloudy
3:52 PM 70.0 °F 59.0 °F 68% 30.11 in 10.0 mi SE 10.4 mph - 0.00 in   Overcast
4:52 PM 70.0 °F 57.0 °F 63% 30.10 in 10.0 mi East 10.4 mph 19.6 mph 0.01 in   Overcast
5:52 PM 68.0 °F 60.1 °F 76% 30.08 in 10.0 mi East 6.9 mph - N/A   Mostly Cloudy
6:06 PM 66.2 °F 60.8 °F 83% 30.08 in 1.8 mi SE 8.1 mph - 0.08 in Rain Heavy Rain
6:18 PM 64.4 °F 62.6 °F 94% 30.09 in 3.0 mi SSE 10.4 mph 21.9 mph 0.19 in Rain Rain
6:52 PM 64.9 °F 62.1 °F 90% 30.09 in 10.0 mi ESE 8.1 mph - 0.20 in   Overcast
7:43 PM 64.4 °F 62.6 °F 94% 30.08 in 4.0 mi ESE 5.8 mph - 0.04 in Rain Rain
7:52 PM 64.9 °F 62.1 °F 90% 30.08 in 9.0 mi ESE 6.9 mph - 0.04 in Rain Light Rain
8:52 PM 64.0 °F 61.0 °F 90% 30.08 in 8.0 mi East 5.8 mph - 0.00 in   Overcast
9:52 PM 62.1 °F 60.1 °F 93% 30.07 in 10.0 mi ENE 8.1 mph - N/A   Overcast
10:35 PM 60.8 °F 59.0 °F 94% 30.07 in 9.0 mi ENE 5.8 mph - N/A   Overcast
10:52 PM 61.0 °F 59.0 °F 93% 30.07 in 9.0 mi ENE 6.9 mph - N/A   Overcast
11:12 PM 60.8 °F 59.0 °F 94% 30.07 in 7.0 mi East 5.8 mph - N/A   Overcast
11:52 PM 61.0 °F 59.0 °F 93% 30.06 in 5.0 mi East 4.6 mph - 0.02 in   Overcast